| time (UTC) | temp F | wind direction | speed knots | gust knots | rain 1hr in | rain 24hr in | rain mn in | humidity % | barometer mb |
| 20260507094503 | 37 | 109 | 0.0 | 0.0 | 0.00 | 0.23 | 0.00 | 93 | 1011.6 |
| 20260507093502 | 37 | 109 | 0.0 | 0.0 | 0.00 | 0.24 | 0.00 | 92 | 1011.6 |
| 20260507092502 | 36 | 109 | 0.0 | 0.0 | 0.00 | 0.25 | 0.00 | 92 | 1011.7 |
| 20260507091502 | 36 | 109 | 0.0 | 0.0 | 0.00 | 0.25 | 0.00 | 92 | 1011.6 |
| 20260507090501 | 36 | 109 | 0.0 | 0.0 | 0.00 | 0.25 | 0.00 | 92 | 1011.7 |
| 20260507085501 | 36 | 109 | 0.0 | 0.0 | 0.00 | 0.26 | 0.00 | 92 | 1011.6 |
| 20260507084935 | 36 | 109 | 0.0 | 0.0 | 0.00 | 0.26 | 0.00 | 92 | 1011.4 |
| 20260507083502 | 36 | 109 | 0.0 | 0.0 | 0.00 | 0.27 | 0.00 | 92 | 1011.6 |
| 20260507082501 | 36 | 109 | 0.0 | 0.0 | 0.00 | 0.27 | 0.00 | 91 | 1011.8 |
| 20260507081502 | 37 | 109 | 0.0 | 0.0 | 0.00 | 0.28 | 0.00 | 91 | 1011.9 |
| 20260507080501 | 37 | 109 | 0.0 | 0.0 | 0.00 | 0.28 | 0.00 | 91 | 1011.8 |
| 20260507075501 | 37 | 109 | 0.0 | 0.0 | 0.00 | 0.29 | 0.00 | 91 | 1011.6 |
| 20260507074501 | 38 | 109 | 0.0 | 0.0 | 0.00 | 0.30 | 0.00 | 90 | 1011.5 |
| 20260507073502 | 38 | 109 | 0.0 | 0.0 | 0.00 | 0.31 | 0.00 | 90 | 1011.6 |
| 20260507072502 | 39 | 109 | 0.0 | 0.0 | 0.00 | 0.32 | 0.00 | 90 | 1011.7 |
| 20260507071901 | 40 | 109 | 0.0 | 0.0 | 0.00 | 0.34 | 0.00 | 90 | 1012.0 |
| 20260507071633 | 39 | 109 | 0.0 | 0.0 | 0.00 | 0.33 | 0.00 | 90 | 1011.8 |
| 20260507065501 | 40 | 109 | 0.0 | 0.0 | 0.00 | 0.35 | 0.00 | 89 | 1012.1 |
| 20260507064501 | 40 | 109 | 0.0 | 0.0 | 0.00 | 0.37 | 0.00 | 89 | 1011.8 |
| 20260507063501 | 41 | 109 | 0.0 | 0.0 | 0.00 | 0.38 | 0.00 | 89 | 1011.9 |
| 20260507062501 | 41 | 109 | 0.0 | 0.0 | 0.00 | 0.39 | 0.00 | 88 | 1011.7 |
| 20260507061502 | 41 | 109 | 0.0 | 0.0 | 0.00 | 0.40 | 0.00 | 88 | 1011.8 |
| 20260507060501 | 42 | 109 | 0.0 | 0.0 | 0.00 | 0.43 | 0.00 | 89 | 1011.9 |
| 20260507055501 | 42 | 109 | 0.0 | 0.0 | 0.00 | 0.45 | 0.00 | 89 | 1011.9 |
| 20260507054502 | 42 | 109 | 0.0 | 0.0 | 0.00 | 0.47 | 0.00 | 89 | 1012.0 |
| 20260507053501 | 42 | 109 | 0.0 | 0.0 | 0.00 | 0.49 | 0.00 | 89 | 1012.0 |
| 20260507052946 | 42 | 109 | 0.0 | 0.0 | 0.00 | 0.51 | 0.00 | 90 | 1012.1 |
| 20260507051501 | 42 | 109 | 0.0 | 0.0 | 0.00 | 0.53 | 0.00 | 90 | 1012.3 |
| 20260507050502 | 42 | 109 | 0.0 | 0.0 | 0.00 | 0.55 | 0.00 | 90 | 1012.4 |
| 20260507045501 | 42 | 109 | 0.0 | 0.0 | 0.00 | 0.56 | 0.00 | 90 | 1012.6 |
| 20260507044501 | 42 | 109 | 0.0 | 0.0 | 0.00 | 0.58 | 0.00 | 90 | 1012.4 |
| 20260507043937 | 42 | 109 | 0.0 | 0.0 | 0.00 | 0.60 | 0.00 | 91 | 1012.4 |
| 20260507042501 | 42 | 109 | 0.0 | 0.0 | 0.00 | 0.60 | 0.00 | 91 | 1012.4 |
| 20260507041501 | 42 | 109 | 0.0 | 0.0 | 0.00 | 0.62 | 0.00 | 91 | 1012.1 |
| 20260507040501 | 42 | 109 | 0.0 | 0.0 | 0.00 | 0.63 | 0.00 | 91 | 1012.3 |
| 20260507035501 | 42 | 109 | 0.0 | 0.0 | 0.00 | 0.63 | 0.63 | 92 | 1012.1 |
| 20260507034500 | 42 | 109 | 0.0 | 0.0 | 0.00 | 0.64 | 0.63 | 92 | 1012.1 |
| 20260507033935 | 42 | 109 | 0.0 | 0.0 | 0.00 | 0.65 | 0.63 | 92 | 1012.0 |
| 20260507032935 | 43 | 109 | 0.0 | 0.0 | 0.00 | 0.66 | 0.63 | 92 | 1012.0 |
| 20260507031501 | 43 | 109 | 0.0 | 0.0 | 0.00 | 0.66 | 0.63 | 92 | 1011.9 |
| 20260507030501 | 43 | 109 | 0.0 | 0.0 | 0.00 | 0.66 | 0.63 | 92 | 1012.0 |
| 20260507025501 | 43 | 109 | 0.0 | 0.0 | 0.00 | 0.67 | 0.63 | 92 | 1011.9 |
| 20260507024500 | 43 | 109 | 0.0 | 0.0 | 0.00 | 0.67 | 0.63 | 92 | 1011.8 |
| 20260507023501 | 43 | 109 | 0.0 | 0.0 | 0.00 | 0.67 | 0.63 | 92 | 1011.7 |
| 20260507022501 | 43 | 109 | 0.0 | 0.0 | 0.00 | 0.67 | 0.63 | 92 | 1011.9 |
| 20260507021500 | 43 | 109 | 0.0 | 0.0 | 0.00 | 0.67 | 0.63 | 92 | 1011.8 |
| 20260507020501 | 43 | 109 | 0.0 | 0.0 | 0.00 | 0.67 | 0.63 | 92 | 1011.8 |
| 20260507015936 | 43 | 109 | 0.0 | 0.0 | 0.00 | 0.67 | 0.63 | 92 | 1011.9 |
| 20260507014500 | 43 | 109 | 0.0 | 0.0 | 0.00 | 0.67 | 0.63 | 92 | 1011.8 |
| 20260507013502 | 43 | 109 | 0.0 | 0.0 | 0.00 | 0.68 | 0.63 | 92 | 1011.6 |
| 20260507012501 | 43 | 109 | 0.0 | 0.0 | 0.00 | 0.68 | 0.63 | 92 | 1011.7 |
| 20260507011501 | 43 | 109 | 0.0 | 0.0 | 0.00 | 0.69 | 0.63 | 92 | 1011.8 |
| 20260507010501 | 43 | 106 | 0.0 | 0.0 | 0.00 | 0.69 | 0.63 | 92 | 1011.7 |
| 20260507005500 | 43 | 105 | 0.0 | 0.0 | 0.00 | 0.70 | 0.63 | 92 | 1011.4 |
| 20260507002936 | 42 | 81 | 0.0 | 0.0 | 0.02 | 0.72 | 0.63 | 92 | 1011.4 |
| 20260507001455 | 43 | 81 | 0.0 | 0.0 | 0.03 | 0.72 | 0.63 | 92 | 1011.1 |
| 20260507000454 | 43 | 81 | 0.0 | 0.0 | 0.03 | 0.73 | 0.63 | 91 | 1010.9 |
| 20260506234943 | 43 | 81 | 0.0 | 0.0 | 0.06 | 0.74 | 0.63 | 90 | 1010.9 |
| 20260506233454 | 45 | 84 | 0.0 | 0.0 | 0.04 | 0.73 | 0.61 | 91 | 1010.9 |
| 20260506232940 | 45 | 85 | 0.0 | 0.0 | 0.05 | 0.73 | 0.61 | 91 | 1010.7 |
| 20260506231452 | 46 | 85 | 0.0 | 0.0 | 0.05 | 0.73 | 0.60 | 90 | 1010.4 |
| 20260506230452 | 46 | 85 | 0.0 | 0.0 | 0.05 | 0.74 | 0.59 | 90 | 1010.1 |
| 20260506225452 | 47 | 86 | 0.0 | 0.0 | 0.04 | 0.73 | 0.58 | 89 | 1009.8 |
| 20260506224452 | 47 | 86 | 0.0 | 0.0 | 0.02 | 0.72 | 0.57 | 88 | 1009.7 |
| 20260506223452 | 48 | 86 | 0.0 | 0.0 | 0.02 | 0.72 | 0.57 | 86 | 1009.5 |
| 20260506222452 | 48 | 86 | 0.0 | 0.0 | 0.01 | 0.71 | 0.55 | 85 | 1009.5 |
| 20260506221452 | 48 | 86 | 0.0 | 0.0 | 0.00 | 0.70 | 0.55 | 84 | 1009.3 |
| 20260506220452 | 48 | 86 | 0.0 | 0.0 | 0.00 | 0.71 | 0.55 | 84 | 1009.3 |
| 20260506215931 | 48 | 86 | 0.0 | 0.0 | 0.00 | 0.72 | 0.55 | 84 | 1009.2 |
| 20260506214450 | 48 | 86 | 0.0 | 0.0 | 0.00 | 0.72 | 0.55 | 83 | 1009.1 |
| 20260506213449 | 48 | 86 | 0.0 | 0.0 | 0.00 | 0.72 | 0.55 | 83 | 1009.1 |
| 20260506213357 | 49 | 86 | 0.0 | 0.0 | 0.00 | 0.73 | 0.55 | 82 | 1009.0 |
| 20260506211926 | 49 | 86 | 0.0 | 0.0 | 0.00 | 0.73 | 0.55 | 80 | 1009.1 |
| 20260506211348 | 50 | 87 | 0.0 | 0.0 | 0.00 | 0.73 | 0.55 | 79 | 1009.1 |
| 20260506211129 | 50 | 86 | 0.0 | 0.0 | 0.00 | 0.73 | 0.55 | 80 | 1009.2 |
| 20260506211125 | 50 | 86 | 0.0 | 0.0 | 0.00 | 0.73 | 0.55 | 80 | 1009.1 |
| 20260506210841 | 46 | 86 | 0.0 | 0.0 | 0.00 | 0.73 | 0.55 | 89 | 1009.4 |
| 20260506210831 | 49 | 0 | 0.0 | 0.0 | 0.00 | 0.73 | 0.55 | 83 | 1009.1 |
| 20260506210815 | 50 | 86 | 0.0 | 0.0 | 0.00 | 0.73 | 0.55 | 78 | 1009.2 |
| 20260506210811 | 48 | 0 | 0.0 | 0.0 | 0.00 | 0.73 | 0.55 | 82 | 1009.2 |
| 20260506210743 | 51 | 86 | 0.0 | 0.0 | 0.00 | 0.73 | 0.55 | 79 | 1009.2 |
| 20260506204108 | 48 | 86 | 0.0 | 0.0 | 0.00 | 0.73 | 0.55 | 82 | 1009.2 |
| 20260506204104 | 50 | 87 | 0.0 | 0.0 | 0.00 | 0.73 | 0.55 | 78 | 1009.2 |
| 20260506204100 | 51 | 0 | 0.0 | 0.0 | 0.00 | 0.73 | 0.55 | 78 | 1009.2 |
| 20260506195757 | 48 | 0 | 0.0 | 0.0 | 0.00 | 0.73 | 0.55 | 83 | 1009.3 |
| 20260506195654 | 48 | 86 | 0.0 | 0.0 | 0.00 | 0.73 | 0.55 | 83 | 1009.3 |
| 20260506195618 | 48 | 0 | 0.0 | 0.0 | 0.00 | 0.73 | 0.55 | 85 | 1009.3 |
| 20260506195540 | 47 | 0 | 0.0 | 0.0 | 0.00 | 0.73 | 0.55 | 87 | 1009.5 |
| 20260506184542 | 46 | 86 | 0.0 | 0.0 | 0.00 | 0.73 | 0.55 | 89 | 1009.5 |
| 20260506184537 | 47 | 0 | 0.0 | 0.0 | 0.00 | 0.73 | 0.55 | 88 | 1009.4 |
| 20260506181429 | 46 | 86 | 0.0 | 0.0 | 0.00 | 0.73 | 0.55 | 90 | 1009.6 |
| 20260506180430 | 45 | 86 | 0.0 | 0.0 | 0.00 | 0.73 | 0.55 | 90 | 1009.7 |
| 20260506175425 | 45 | 86 | 0.0 | 0.0 | 0.00 | 0.73 | 0.55 | 90 | 1009.7 |
| 20260506174425 | 45 | 86 | 0.0 | 0.0 | 0.00 | 0.73 | 0.55 | 91 | 1009.7 |
| 20260506173425 | 45 | 86 | 0.0 | 0.0 | 0.00 | 0.73 | 0.55 | 91 | 1009.5 |
| 20260506172426 | 45 | 86 | 0.0 | 0.0 | 0.00 | 0.73 | 0.55 | 92 | 1009.4 |
| 20260506172340 | 45 | 86 | 0.0 | 0.0 | 0.00 | 0.73 | 0.55 | 92 | 1009.2 |
| 20260506170423 | 45 | 86 | 0.0 | 0.0 | 0.00 | 0.73 | 0.55 | 92 | 1009.0 |
| 20260506165903 | 45 | 86 | 0.0 | 0.0 | 0.00 | 0.73 | 0.55 | 92 | 1009.0 |
| 20260506164421 | 45 | 86 | 0.0 | 0.0 | 0.00 | 0.73 | 0.55 | 92 | 1009.1 |
| 20260506163420 | 45 | 86 | 0.0 | 0.0 | 0.00 | 0.73 | 0.55 | 92 | 1009.0 |
| 20260506162415 | 44 | 86 | 0.0 | 0.0 | 0.00 | 0.73 | 0.55 | 92 | 1009.1 |
| 20260506161414 | 44 | 86 | 0.0 | 0.0 | 0.00 | 0.73 | 0.55 | 92 | 1009.1 |
| 20260506160415 | 44 | 86 | 0.0 | 0.0 | 0.00 | 0.73 | 0.55 | 93 | 1009.0 |
| 20260506155415 | 44 | 86 | 0.0 | 0.0 | 0.00 | 0.73 | 0.55 | 93 | 1009.0 |
| 20260506154415 | 44 | 86 | 0.0 | 0.0 | 0.00 | 0.73 | 0.55 | 92 | 1009.1 |
| 20260506153415 | 44 | 86 | 0.0 | 0.0 | 0.00 | 0.73 | 0.55 | 92 | 1009.1 |
| 20260506152415 | 43 | 86 | 0.0 | 0.0 | 0.00 | 0.73 | 0.55 | 92 | 1008.9 |
| 20260506151415 | 43 | 86 | 0.0 | 0.9 | 0.00 | 0.73 | 0.55 | 92 | 1008.8 |
| 20260506150414 | 43 | 87 | 0.0 | 0.0 | 0.00 | 0.73 | 0.55 | 92 | 1008.9 |
| 20260506145409 | 43 | 87 | 0.0 | 0.0 | 0.00 | 0.73 | 0.55 | 92 | 1008.9 |
| 20260506144409 | 43 | 87 | 0.0 | 0.0 | 0.00 | 0.73 | 0.55 | 92 | 1008.8 |
| 20260506143842 | 43 | 87 | 0.0 | 0.0 | 0.00 | 0.73 | 0.55 | 92 | 1008.8 |
| 20260506142846 | 43 | 87 | 0.0 | 0.0 | 0.01 | 0.73 | 0.55 | 92 | 1008.7 |
| 20260506141409 | 43 | 87 | 0.0 | 0.0 | 0.01 | 0.73 | 0.55 | 92 | 1008.6 |
| 20260506140856 | 43 | 88 | 0.0 | 0.0 | 0.02 | 0.73 | 0.55 | 92 | 1008.4 |
| 20260506135847 | 44 | 88 | 0.0 | 0.0 | 0.02 | 0.73 | 0.55 | 92 | 1008.4 |
| 20260506134851 | 44 | 88 | 0.0 | 0.0 | 0.03 | 0.73 | 0.55 | 92 | 1008.6 |
| 20260506133408 | 43 | 88 | 0.0 | 0.0 | 0.03 | 0.73 | 0.55 | 92 | 1008.4 |
| 20260506132403 | 43 | 88 | 0.0 | 0.0 | 0.02 | 0.72 | 0.54 | 92 | 1008.4 |
| 20260506131838 | 43 | 88 | 0.0 | 0.0 | 0.03 | 0.72 | 0.54 | 92 | 1008.4 |
| 20260506130403 | 43 | 88 | 0.0 | 0.0 | 0.02 | 0.71 | 0.53 | 92 | 1008.2 |
| 20260506125841 | 43 | 88 | 0.0 | 0.0 | 0.03 | 0.71 | 0.53 | 92 | 1008.2 |
| 20260506124842 | 43 | 88 | 0.0 | 0.9 | 0.02 | 0.70 | 0.52 | 92 | 1008.2 |
| 20260506123836 | 43 | 88 | 0.0 | 2.6 | 0.03 | 0.70 | 0.52 | 92 | 1008.2 |
| 20260506122400 | 43 | 95 | 0.0 | 1.7 | 0.03 | 0.70 | 0.52 | 92 | 1008.0 |
| 20260506121401 | 43 | 71 | 0.0 | 0.0 | 0.02 | 0.69 | 0.51 | 92 | 1008.2 |
| 20260506120400 | 43 | 71 | 0.0 | 0.0 | 0.03 | 0.69 | 0.51 | 92 | 1008.2 |
| 20260506115401 | 43 | 71 | 0.0 | 0.0 | 0.02 | 0.68 | 0.50 | 92 | 1008.3 |
| 20260506114400 | 43 | 71 | 0.0 | 0.0 | 0.03 | 0.68 | 0.50 | 92 | 1008.3 |
| 20260506113839 | 43 | 71 | 0.0 | 0.0 | 0.04 | 0.67 | 0.49 | 92 | 1008.4 |
| 20260506112402 | 43 | 70 | 0.0 | 0.0 | 0.05 | 0.67 | 0.49 | 92 | 1008.1 |
| 20260506111401 | 43 | 71 | 0.0 | 0.0 | 0.06 | 0.67 | 0.49 | 92 | 1008.1 |
| 20260506110401 | 43 | 71 | 0.0 | 0.0 | 0.06 | 0.66 | 0.48 | 92 | 1008.0 |
| 20260506105401 | 43 | 71 | 0.0 | 0.0 | 0.07 | 0.66 | 0.48 | 92 | 1007.9 |
| 20260506104840 | 43 | 70 | 0.0 | 0.0 | 0.07 | 0.65 | 0.47 | 92 | 1007.7 |
| 20260506103400 | 43 | 70 | 0.0 | 0.0 | 0.06 | 0.63 | 0.45 | 92 | 1008.1 |
| 20260506103319 | 43 | 81 | 0.0 | 0.0 | 0.06 | 0.62 | 0.44 | 92 | 1008.2 |
| 20260506101402 | 43 | 81 | 0.0 | 0.0 | 0.05 | 0.61 | 0.43 | 92 | 1008.3 |
| 20260506100401 | 44 | 81 | 0.0 | 0.0 | 0.04 | 0.60 | 0.42 | 92 | 1008.2 |